AirNav   Pilot Hours Calculator
 
 539 users online  

17K Boise City Airport
Boise City, Oklahoma, USA

GOING TO BOISE CITY?


FAA INFORMATION EFFECTIVE 11 AUGUST 2022

Location

FAA Identifier: 17K
Lat/Long: 36-46-27.5000N 102-30-37.6000W
36-46.458333N 102-30.626667W
36.7743056,-102.5104444
(estimated)
Elevation: 4174.3 ft. / 1272.3 m (surveyed)
Variation: 09E (1995)
From city: 3 miles N of BOISE CITY, OK
Time zone: UTC -5 (UTC -6 during Standard Time)
Zip code: 73933

Airport Operations

Airport use: Open to the public
Activation date: 08/1946
Control tower: no
ARTCC: ALBUQUERQUE CENTER
FSS: MC ALESTER FLIGHT SERVICE STATION
NOTAMs facility: MLC (NOTAM-D service available)
Attendance: UNATNDD
Wind indicator: lighted
Segmented circle: yes
Lights: MIRL RWY 04/22 SS-SR; PRESET LOW INTST; INCR INTST - CTAF.
Beacon: white-green (lighted land airport)
Operates sunset to sunrise.

Airport Communications

CTAF: 122.9
  • APCH/DEP SVC PRVDD BY ALBUQUERQUE ARTCC (ABQ) ON FREQS 127.85/285.475 (MOUNT DORA RCAG).

Airport Services

Parking: tiedowns
Airframe service: NONE
Powerplant service: NONE
Bottled oxygen: NONE
Bulk oxygen: NONE

Runway Information

Runway 4/22

Dimensions: 4211 x 60 ft. / 1284 x 18 m
Surface: asphalt, in fair condition
Weight bearing capacity: 
Single wheel: 4.0
Runway edge lights: medium intensity
RUNWAY 4  RUNWAY 22
Latitude: 36-46.232803N36-46.683457N
Longitude: 102-30.953885W102-30.298213W
Elevation: 4171.7 ft.4164.3 ft.
Traffic pattern: leftleft
Runway heading: 040 magnetic, 049 true220 magnetic, 229 true
Markings: nonprecision, in good conditionnonprecision, in good condition
Touchdown point: yes, no lightsyes, no lights
Obstructions: 25 ft. trees, 480 ft. from runway, 65 ft. right of centerline, 11:1 slope to clear
20 FT TREES 190 FT FM THR 240 FT R OF CNTRLN.
15 ft. road, 450 ft. from runway, 16:1 slope to clear

Airport Ownership and Management from official FAA records

Ownership: Publicly-owned
Owner: CITY OF BOISE CITY
P.O. BOX 129, 23 N. LOGAN
BOISE CITY, OK 73933
Phone 580-544-2271
Manager: WAYNE TWYMAN
CITY HALL, P.O. BOX 129
BOISE CITY, OK 73933
Phone 580-544-2271

Airport Operational Statistics

Aircraft based on the field: 10
Single engine airplanes: 8
Multi engine airplanes: 2
    
Aircraft operations: avg 67/week *
71% local general aviation
29% transient general aviation
* for 12-month period ending 26 November 2019

Additional Remarks

FOR CD CTC ALBUQUERQUE ARTCC AT 505-856-4861.

Instrument Procedures

NOTE: All procedures below are presented as PDF files. If you need a reader for these files, you should download the free Adobe Reader.

NOT FOR NAVIGATION. Please procure official charts for flight.
FAA instrument procedures published for use from 11 August 2022 at 0901Z to 08 September 2022 at 0900z.

 
IAPs - Instrument Approach Procedures
RNAV (GPS) RWY 04   download (190KB)
NOTE: Special Take-Off Minimums/Departure Procedures apply   download (131KB)

Other nearby airports with instrument procedures:

KEHA - Elkhart-Morton County Airport (33 nm NE)
H70 - Stratford Field Airport (34 nm SE)
KCAO - Clayton Municipal Airpark (37 nm SW)
8V7 - Springfield Municipal Airport (41 nm N)
KDHT - Dalhart Municipal Airport (45 nm S)
 
Loc | Ops | Rwys | IFR | FBO | Links
Com | Nav | Svcs | Stats | Notes

AirBoss

 
Area around 17K (Boise City Airport)
 
Road maps at: MapQuest Bing Google
 
Aerial photo
WARNING: Photo may not be current or correct
Aerial photo of 17K (Boise City Airport)
Photo by Ron Lee

Do you have a better or more recent aerial photo of Boise City Airport that you would like to share? If so, please send us your photo.

 
Sectional chart

 
Airport distance calculator
Flying to Boise City Airport? Find the distance to fly.

From to 17K

Sunrise and sunset
Times for 15-Aug-2022
 Local
(UTC-5)
 Zulu
(UTC)
Morning civil twilight06:4111:41
Sunrise07:0812:08
Sunset20:4101:41
Evening civil twilight21:0802:08

Current date and time
Zulu (UTC)  15-Aug-2022 08:14:04
Local (UTC-5)  15-Aug-2022 03:14:04
 
METAR
KSPD 
31nm N 
150756Z AUTO 20007KT 18/08 A3005 RMK AO1 SLP101 T01780078
KEHA 
32nm NE 
150755Z AUTO 18012KT 10SM CLR 22/12 A3005 RMK AO2 T02200123
KCAO 
36nm SW 
150755Z AUTO 22008KT 10SM CLR 19/10 A3011 RMK AO2 SLP115 T01940100
KDHT 
45nm S 
150753Z AUTO 16005KT 10SM CLR 20/12 A3007 RMK AO2 SLP113 T02000117
KGUY 
49nm E 
150753Z AUTO 18010KT 10SM CLR 24/13 A2999 RMK AO2 SLP098 T02440128
TAF
KDHT 
45nm S 
150539Z 1506/1606 17009KT P6SM SKC FM151600 21013KT P6SM SKC FM152300 18013KT P6SM SKC
KGUY 
49nm E 
150539Z 1506/1606 18010KT P6SM SKC FM151400 22012KT P6SM SKC FM152300 18014KT P6SM SKC
NOTAMs
Click for the latest NOTAMs
NOTAMs are issued by the DoD/FAA and will open in a separate window not controlled by AirNav.

 

 
 

Would you like to see your business listed on this page?

 If your business provides an interesting product or service to pilots, flight crews, aircraft, or users of the Boise City Airport, you should consider listing it here.  To start the listing process, click on the button below
 
Add a business
 

Other Pages about Boise City Airport

Update a link
 
Copyright © AirNav, LLC. All rights reserved. Privacy Policy  Contact